| time (UTC) | temp F | wind direction | speed MPH | gust MPH | rain 1hr in | rain 24hr in | rain mn in | humidity % | barometer mb |
| 20260901091509 | 76 | 144 | 0.0 | 0.0 | 0.00 | 0.00 | 0.00 | 84 | 1015.4 |
| 20260901091102 | 77 | 0 | 0.0 | 0.0 | 0.00 | 0.00 | 0.00 | 83 | 1015.7 |
| 20260901090202 | 76 | 0 | 0.0 | 0.0 | 0.00 | 0.00 | 0.00 | 84 | 1015.6 |
| 20260901090008 | 76 | 144 | 0.0 | 0.0 | 0.00 | 0.00 | 0.00 | 84 | 1015.3 |
| 20260901085305 | 76 | 0 | 0.0 | 0.0 | 0.00 | 0.00 | 0.00 | 85 | 1015.5 |
| 20260901084507 | 76 | 144 | 0.0 | 0.0 | 0.00 | 0.00 | 0.00 | 85 | 1015.3 |
| 20260901084402 | 76 | 0 | 0.0 | 0.0 | 0.00 | 0.00 | 0.00 | 85 | 1015.6 |
| 20260901083502 | 76 | 0 | 0.0 | 0.0 | 0.00 | 0.00 | 0.00 | 84 | 1015.6 |
| 20260901083012 | 76 | 144 | 0.0 | 0.0 | 0.00 | 0.00 | 0.00 | 84 | 1015.4 |
| 20260901082602 | 77 | 0 | 0.0 | 0.0 | 0.00 | 0.00 | 0.00 | 84 | 1015.8 |
| 20260901081702 | 77 | 144 | 1.0 | 2.0 | 0.00 | 0.00 | 0.00 | 84 | 1015.7 |
| 20260901081603 | 76 | 144 | 0.0 | 2.0 | 0.00 | 0.00 | 0.00 | 84 | 1015.4 |
| 20260901080004 | 76 | 144 | 1.0 | 2.0 | 0.00 | 0.00 | 0.00 | 84 | 1015.3 |
| 20260901075002 | 77 | 144 | 1.0 | 2.0 | 0.00 | 0.00 | 0.00 | 83 | 1015.6 |
| 20260901074502 | 77 | 144 | 0.0 | 2.0 | 0.00 | 0.00 | 0.00 | 83 | 1015.2 |
| 20260901074102 | 77 | 144 | 1.0 | 2.0 | 0.00 | 0.00 | 0.00 | 82 | 1015.6 |
| 20260901073202 | 78 | 144 | 0.0 | 1.0 | 0.00 | 0.00 | 0.00 | 82 | 1015.7 |
| 20260901073004 | 77 | 144 | 0.0 | 2.0 | 0.00 | 0.00 | 0.00 | 82 | 1015.3 |
| 20260901072308 | 78 | 143 | 1.0 | 2.0 | 0.00 | 0.00 | 0.00 | 81 | 1015.6 |
| 20260901071606 | 77 | 144 | 0.0 | 2.0 | 0.00 | 0.00 | 0.00 | 81 | 1015.3 |
| 20260901071402 | 78 | 144 | 1.0 | 2.0 | 0.00 | 0.00 | 0.00 | 81 | 1015.6 |
| 20260901070502 | 78 | 144 | 1.0 | 2.0 | 0.00 | 0.00 | 0.00 | 80 | 1015.4 |
| 20260901070007 | 78 | 144 | 0.0 | 2.0 | 0.00 | 0.00 | 0.00 | 80 | 1015.2 |
| 20260901065602 | 78 | 144 | 0.0 | 1.0 | 0.00 | 0.00 | 0.00 | 80 | 1015.5 |
| 20260901064702 | 79 | 0 | 0.0 | 0.0 | 0.00 | 0.00 | 0.00 | 79 | 1015.4 |
| 20260901064509 | 78 | 144 | 0.0 | 0.0 | 0.00 | 0.00 | 0.00 | 79 | 1015.0 |
| 20260901063802 | 79 | 0 | 0.0 | 0.0 | 0.00 | 0.00 | 0.00 | 79 | 1015.4 |
| 20260901063006 | 79 | 144 | 0.0 | 0.0 | 0.00 | 0.00 | 0.00 | 78 | 1015.0 |
| 20260901062902 | 80 | 0 | 0.0 | 0.0 | 0.00 | 0.00 | 0.00 | 78 | 1015.4 |
| 20260901062002 | 80 | 0 | 0.0 | 0.0 | 0.00 | 0.00 | 0.00 | 77 | 1015.3 |
| 20260901061509 | 79 | 144 | 0.0 | 0.0 | 0.00 | 0.00 | 0.00 | 77 | 1015.0 |
| 20260901061102 | 80 | 0 | 0.0 | 0.0 | 0.00 | 0.00 | 0.00 | 77 | 1015.2 |
| 20260901060202 | 80 | 144 | 0.0 | 1.0 | 0.00 | 0.00 | 0.00 | 76 | 1015.3 |
| 20260901060004 | 80 | 144 | 0.0 | 1.0 | 0.00 | 0.00 | 0.00 | 76 | 1014.9 |
| 20260901055306 | 81 | 144 | 0.0 | 1.0 | 0.00 | 0.00 | 0.00 | 75 | 1015.2 |
| 20260901054503 | 81 | 144 | 0.0 | 1.0 | 0.00 | 0.00 | 0.00 | 75 | 1014.8 |
| 20260901054402 | 81 | 144 | 0.0 | 1.0 | 0.00 | 0.00 | 0.00 | 74 | 1015.0 |
| 20260901053502 | 81 | 144 | 0.0 | 1.0 | 0.00 | 0.00 | 0.00 | 74 | 1014.9 |
| 20260901053004 | 81 | 145 | 0.0 | 1.0 | 0.00 | 0.00 | 0.00 | 73 | 1014.6 |
| 20260901051702 | 82 | 0 | 0.0 | 0.0 | 0.00 | 0.00 | 0.00 | 72 | 1014.8 |
| 20260901051505 | 81 | 144 | 0.0 | 0.0 | 0.00 | 0.00 | 0.00 | 72 | 1014.5 |
| 20260901050802 | 82 | 142 | 0.0 | 1.0 | 0.00 | 0.00 | 0.00 | 72 | 1014.8 |
| 20260901050009 | 82 | 144 | 0.0 | 2.0 | 0.00 | 0.00 | 0.00 | 71 | 1014.4 |
| 20260901045902 | 82 | 130 | 0.0 | 2.0 | 0.00 | 0.00 | 0.00 | 71 | 1014.7 |
| 20260901045002 | 82 | 122 | 0.0 | 1.0 | 0.00 | 0.00 | 0.00 | 71 | 1014.8 |
| 20260901044502 | 82 | 123 | 0.0 | 1.0 | 0.00 | 0.00 | 0.00 | 71 | 1014.4 |
| 20260901044102 | 83 | 123 | 0.0 | 2.0 | 0.00 | 0.00 | 0.00 | 70 | 1014.8 |
| 20260901043007 | 82 | 123 | 0.0 | 1.0 | 0.00 | 0.00 | 0.00 | 70 | 1014.4 |
| 20260901042305 | 83 | 127 | 0.0 | 2.0 | 0.00 | 0.00 | 0.00 | 70 | 1014.8 |
| 20260901041508 | 83 | 123 | 0.0 | 2.0 | 0.00 | 0.00 | 0.00 | 69 | 1014.5 |
| 20260901041402 | 83 | 126 | 0.0 | 2.0 | 0.00 | 0.00 | 0.00 | 69 | 1014.8 |
| 20260901040502 | 83 | 127 | 0.0 | 2.0 | 0.00 | 0.00 | 0.00 | 69 | 1014.8 |
| 20260901040113 | 83 | 121 | 0.0 | 2.0 | 0.00 | 0.00 | 0.00 | 68 | 1014.4 |
| 20260901034702 | 84 | 112 | 0.0 | 2.0 | 0.00 | 0.00 | 0.00 | 68 | 1014.7 |
| 20260901034504 | 83 | 113 | 0.0 | 2.0 | 0.00 | 0.00 | 0.00 | 68 | 1014.3 |
| 20260901033802 | 84 | 113 | 0.0 | 2.0 | 0.00 | 0.00 | 0.00 | 67 | 1014.6 |
| 20260901033107 | 83 | 113 | 0.0 | 1.0 | 0.00 | 0.00 | 0.00 | 67 | 1014.3 |
| 20260901032902 | 84 | 113 | 0.0 | 1.0 | 0.00 | 0.00 | 0.00 | 67 | 1014.6 |
| 20260901032002 | 84 | 147 | 0.0 | 1.0 | 0.00 | 0.00 | 0.00 | 66 | 1014.6 |
| 20260901031603 | 84 | 111 | 0.0 | 1.0 | 0.00 | 0.00 | 0.00 | 65 | 1014.3 |
| 20260901031102 | 85 | 110 | 0.0 | 1.0 | 0.00 | 0.00 | 0.00 | 65 | 1014.5 |
| 20260901030202 | 85 | 112 | 0.0 | 2.0 | 0.00 | 0.00 | 0.00 | 64 | 1014.3 |
| 20260901030104 | 84 | 111 | 0.0 | 2.0 | 0.00 | 0.00 | 0.00 | 64 | 1014.0 |
| 20260901024605 | 85 | 117 | 0.0 | 3.0 | 0.00 | 0.00 | 0.00 | 64 | 1013.7 |
| 20260901024402 | 85 | 116 | 0.0 | 3.0 | 0.00 | 0.00 | 0.00 | 63 | 1014.0 |
| 20260901023502 | 85 | 144 | 0.0 | 3.0 | 0.00 | 0.00 | 0.00 | 63 | 1014.0 |
| 20260901023102 | 84 | 159 | 0.0 | 3.0 | 0.00 | 0.00 | 0.00 | 63 | 1013.7 |
| 20260901022602 | 85 | 143 | 1.0 | 3.0 | 0.00 | 0.00 | 0.00 | 63 | 1013.9 |
| 20260901021702 | 85 | 145 | 0.0 | 3.0 | 0.00 | 0.00 | 0.00 | 62 | 1013.8 |
| 20260901021603 | 84 | 109 | 0.0 | 3.0 | 0.00 | 0.00 | 0.00 | 62 | 1013.5 |
| 20260901020802 | 85 | 163 | 0.0 | 1.0 | 0.00 | 0.00 | 0.00 | 61 | 1013.7 |
| 20260901020105 | 85 | 164 | 0.0 | 0.0 | 0.00 | 0.00 | 0.00 | 61 | 1013.4 |
| 20260901015902 | 85 | 0 | 0.0 | 0.0 | 0.00 | 0.00 | 0.00 | 61 | 1013.6 |
| 20260901015002 | 86 | 0 | 0.0 | 0.0 | 0.00 | 0.00 | 0.00 | 60 | 1013.6 |
| 20260901014603 | 86 | 164 | 0.0 | 0.0 | 0.00 | 0.00 | 0.00 | 60 | 1013.2 |
| 20260901014102 | 87 | 0 | 0.0 | 0.0 | 0.00 | 0.00 | 0.00 | 59 | 1013.4 |
| 20260901013202 | 87 | 0 | 0.0 | 0.0 | 0.00 | 0.00 | 0.00 | 57 | 1013.4 |
| 20260901013107 | 87 | 164 | 0.0 | 0.0 | 0.00 | 0.00 | 0.00 | 57 | 1013.1 |
| 20260901012306 | 88 | 164 | 0.0 | 1.0 | 0.00 | 0.00 | 0.00 | 55 | 1013.4 |
| 20260901011503 | 88 | 164 | 0.0 | 1.0 | 0.00 | 0.00 | 0.00 | 54 | 1013.1 |
| 20260901011402 | 89 | 163 | 0.0 | 1.0 | 0.00 | 0.00 | 0.00 | 54 | 1013.3 |
| 20260901010502 | 90 | 163 | 0.0 | 1.0 | 0.00 | 0.00 | 0.00 | 53 | 1013.3 |
| 20260901010108 | 90 | 164 | 0.0 | 1.0 | 0.00 | 0.00 | 0.00 | 52 | 1012.9 |
| 20260901005602 | 91 | 163 | 0.0 | 1.0 | 0.00 | 0.00 | 0.00 | 51 | 1013.2 |
| 20260901004702 | 92 | 163 | 0.0 | 1.0 | 0.00 | 0.00 | 0.00 | 50 | 1013.2 |
| 20260901004504 | 92 | 164 | 0.0 | 0.0 | 0.00 | 0.00 | 0.00 | 50 | 1012.8 |
| 20260901003802 | 93 | 164 | 0.0 | 2.0 | 0.00 | 0.00 | 0.00 | 49 | 1013.1 |
| 20260901003106 | 93 | 164 | 0.0 | 2.0 | 0.00 | 0.00 | 0.00 | 47 | 1012.8 |
| 20260901002902 | 93 | 164 | 0.0 | 2.0 | 0.00 | 0.00 | 0.00 | 47 | 1013.0 |
| 20260901001604 | 93 | 164 | 0.0 | 3.0 | 0.00 | 0.00 | 0.00 | 46 | 1012.6 |
| 20260901001102 | 94 | 163 | 2.0 | 4.0 | 0.00 | 0.00 | 0.00 | 46 | 1012.9 |
| 20260901000203 | 94 | 157 | 2.0 | 5.0 | 0.00 | 0.00 | 0.00 | 45 | 1012.9 |
| 20260901000007 | 94 | 164 | 2.0 | 5.0 | 0.00 | 0.00 | 0.00 | 45 | 1012.6 |
| 20260831235306 | 95 | 152 | 3.0 | 5.0 | 0.00 | 0.00 | 0.00 | 44 | 1012.9 |
| 20260831234503 | 95 | 155 | 3.0 | 6.0 | 0.00 | 0.00 | 0.00 | 43 | 1012.6 |
| 20260831234402 | 95 | 158 | 4.0 | 6.0 | 0.00 | 0.00 | 0.00 | 43 | 1012.9 |
| 20260831233502 | 96 | 168 | 4.0 | 7.0 | 0.00 | 0.00 | 0.00 | 41 | 1013.0 |
| 20260831233107 | 96 | 132 | 4.0 | 7.0 | 0.00 | 0.00 | 0.00 | 41 | 1012.8 |
| 20260831232602 | 97 | 138 | 4.0 | 7.0 | 0.00 | 0.00 | 0.00 | 40 | 1012.9 |
| 20260831231702 | 98 | 154 | 3.0 | 6.0 | 0.00 | 0.00 | 0.00 | 39 | 1013.0 |
| 20260831231502 | 97 | 95 | 2.0 | 6.0 | 0.00 | 0.00 | 0.00 | 39 | 1012.6 |
| 20260831230802 | 98 | 149 | 4.0 | 9.0 | 0.00 | 0.00 | 0.00 | 37 | 1012.9 |
| 20260831230002 | 98 | 135 | 5.0 | 9.0 | 0.00 | 0.00 | 0.00 | 35 | 1012.6 |
| 20260831224603 | 99 | 158 | 5.0 | 8.0 | 0.00 | 0.00 | 0.00 | 34 | 1012.7 |
| 20260831223202 | 100 | 142 | 5.0 | 9.0 | 0.00 | 0.00 | 0.00 | 32 | 1013.2 |
| 20260831223004 | 99 | 150 | 5.0 | 10.0 | 0.00 | 0.00 | 0.00 | 30 | 1012.8 |
| 20260831222305 | 100 | 153 | 5.0 | 10.0 | 0.00 | 0.00 | 0.00 | 31 | 1013.2 |
| 20260831221504 | 100 | 178 | 4.0 | 8.0 | 0.00 | 0.00 | 0.00 | 32 | 1012.9 |
| 20260831221402 | 100 | 138 | 4.0 | 8.0 | 0.00 | 0.00 | 0.00 | 32 | 1013.2 |
| 20260831220502 | 100 | 156 | 5.0 | 11.0 | 0.00 | 0.00 | 0.00 | 33 | 1013.2 |
| 20260831220105 | 100 | 116 | 5.0 | 11.0 | 0.00 | 0.00 | 0.00 | 36 | 1012.8 |
| 20260831214702 | 101 | 170 | 4.0 | 8.0 | 0.00 | 0.00 | 0.00 | 36 | 1013.3 |
| 20260831214503 | 101 | 170 | 3.0 | 7.0 | 0.00 | 0.00 | 0.00 | 36 | 1013.0 |
| 20260831213802 | 101 | 175 | 3.0 | 5.0 | 0.00 | 0.00 | 0.00 | 37 | 1013.3 |
| 20260831213002 | 100 | 143 | 3.0 | 8.0 | 0.00 | 0.00 | 0.00 | 36 | 1013.1 |
| 20260831212902 | 100 | 146 | 3.0 | 8.0 | 0.00 | 0.00 | 0.00 | 37 | 1013.5 |
| 20260831212002 | 100 | 143 | 4.0 | 9.0 | 0.00 | 0.00 | 0.00 | 37 | 1013.5 |
| 20260831211603 | 100 | 77 | 3.0 | 11.0 | 0.00 | 0.00 | 0.00 | 37 | 1013.2 |
| 20260831211102 | 101 | 153 | 4.0 | 9.0 | 0.00 | 0.00 | 0.00 | 37 | 1013.7 |
| 20260831210202 | 101 | 158 | 6.0 | 10.0 | 0.00 | 0.00 | 0.00 | 39 | 1013.8 |
| 20260831210106 | 100 | 167 | 4.0 | 10.0 | 0.00 | 0.00 | 0.00 | 39 | 1013.4 |
| 20260831205305 | 101 | 166 | 4.0 | 10.0 | 0.00 | 0.00 | 0.00 | 38 | 1013.8 |
| 20260831204509 | 100 | 148 | 4.0 | 9.0 | 0.00 | 0.00 | 0.00 | 39 | 1013.7 |
| 20260831204402 | 101 | 159 | 5.0 | 9.0 | 0.00 | 0.00 | 0.00 | 39 | 1014.0 |
| 20260831203502 | 101 | 170 | 4.0 | 8.0 | 0.00 | 0.00 | 0.00 | 39 | 1014.0 |
| 20260831203016 | 100 | 168 | 3.0 | 10.0 | 0.00 | 0.00 | 0.00 | 39 | 1013.7 |
| 20260831202602 | 100 | 170 | 5.0 | 10.0 | 0.00 | 0.00 | 0.00 | 39 | 1014.2 |
| 20260831201702 | 100 | 157 | 5.0 | 13.0 | 0.00 | 0.00 | 0.00 | 40 | 1014.2 |
| 20260831201505 | 99 | 115 | 7.0 | 13.0 | 0.00 | 0.00 | 0.00 | 39 | 1013.9 |
| 20260831200802 | 100 | 177 | 4.0 | 9.0 | 0.00 | 0.00 | 0.00 | 40 | 1014.3 |
| 20260831200004 | 100 | 155 | 4.0 | 8.0 | 0.00 | 0.00 | 0.00 | 41 | 1014.0 |
| 20260831195902 | 100 | 134 | 5.0 | 9.0 | 0.00 | 0.00 | 0.00 | 40 | 1014.4 |
| 20260831195002 | 101 | 166 | 5.0 | 10.0 | 0.00 | 0.00 | 0.00 | 40 | 1014.5 |
| 20260831194511 | 101 | 160 | 5.0 | 10.0 | 0.00 | 0.00 | 0.00 | 40 | 1014.2 |
| 20260831194102 | 101 | 164 | 5.0 | 8.0 | 0.00 | 0.00 | 0.00 | 40 | 1014.6 |
| 20260831193202 | 100 | 172 | 5.0 | 12.0 | 0.00 | 0.00 | 0.00 | 42 | 1014.6 |
| 20260831193006 | 99 | 165 | 5.0 | 14.0 | 0.00 | 0.00 | 0.00 | 42 | 1014.3 |
| 20260831192305 | 99 | 149 | 4.0 | 14.0 | 0.00 | 0.00 | 0.00 | 41 | 1014.7 |
| 20260831191604 | 99 | 107 | 4.0 | 9.0 | 0.00 | 0.00 | 0.00 | 42 | 1014.4 |
| 20260831191402 | 99 | 196 | 3.0 | 7.0 | 0.00 | 0.00 | 0.00 | 43 | 1014.8 |
| 20260831190502 | 100 | 330 | 2.0 | 6.0 | 0.00 | 0.00 | 0.00 | 42 | 1014.9 |
| 20260831190006 | 100 | 313 | 2.0 | 5.0 | 0.00 | 0.00 | 0.00 | 42 | 1014.6 |
| 20260831185602 | 100 | 153 | 4.0 | 8.0 | 0.00 | 0.00 | 0.00 | 43 | 1015.1 |
| 20260831184702 | 100 | 146 | 4.0 | 9.0 | 0.00 | 0.00 | 0.00 | 43 | 1015.3 |
| 20260831184605 | 99 | 145 | 5.0 | 9.0 | 0.00 | 0.00 | 0.00 | 43 | 1014.9 |
| 20260831183103 | 98 | 162 | 2.0 | 7.0 | 0.00 | 0.00 | 0.00 | 45 | 1015.1 |
| 20260831182902 | 98 | 104 | 3.0 | 7.0 | 0.00 | 0.00 | 0.00 | 45 | 1015.4 |
| 20260831182002 | 99 | 141 | 4.0 | 7.0 | 0.00 | 0.00 | 0.00 | 43 | 1015.5 |
| 20260831181504 | 98 | 170 | 3.0 | 7.0 | 0.00 | 0.00 | 0.00 | 44 | 1015.2 |
| 20260831181102 | 99 | 185 | 4.0 | 7.0 | 0.00 | 0.00 | 0.00 | 44 | 1015.7 |
| 20260831180202 | 99 | 187 | 3.0 | 8.0 | 0.00 | 0.00 | 0.00 | 45 | 1015.8 |
| 20260831180005 | 98 | 253 | 3.0 | 8.0 | 0.00 | 0.00 | 0.00 | 46 | 1015.5 |
| 20260831174605 | 98 | 93 | 3.0 | 7.0 | 0.00 | 0.00 | 0.00 | 45 | 1015.7 |
| 20260831174402 | 99 | 173 | 5.0 | 7.0 | 0.00 | 0.00 | 0.00 | 45 | 1016.1 |
| 20260831173502 | 98 | 169 | 3.0 | 9.0 | 0.00 | 0.00 | 0.00 | 46 | 1016.3 |
| 20260831173106 | 98 | 151 | 1.0 | 9.0 | 0.00 | 0.00 | 0.00 | 48 | 1016.1 |
| 20260831172602 | 98 | 165 | 4.0 | 9.0 | 0.00 | 0.00 | 0.00 | 47 | 1016.5 |
| 20260831171702 | 97 | 152 | 3.0 | 7.0 | 0.00 | 0.00 | 0.00 | 49 | 1016.6 |
| 20260831171505 | 96 | 165 | 4.0 | 7.0 | 0.00 | 0.00 | 0.00 | 50 | 1016.3 |
| 20260831170107 | 96 | 167 | 5.0 | 8.0 | 0.00 | 0.00 | 0.00 | 50 | 1016.4 |
| 20260831165902 | 96 | 163 | 4.0 | 8.0 | 0.00 | 0.00 | 0.00 | 50 | 1016.8 |
| 20260831165002 | 96 | 165 | 4.0 | 10.0 | 0.00 | 0.00 | 0.00 | 52 | 1016.8 |
| 20260831164613 | 95 | 166 | 3.0 | 8.0 | 0.00 | 0.00 | 0.00 | 52 | 1016.5 |
| 20260831164101 | 95 | 135 | 4.0 | 9.0 | 0.00 | 0.00 | 0.00 | 54 | 1016.9 |
| 20260831163202 | 94 | 169 | 4.0 | 9.0 | 0.00 | 0.00 | 0.00 | 52 | 1017.0 |
| 20260831163106 | 94 | 157 | 2.0 | 9.0 | 0.00 | 0.00 | 0.00 | 54 | 1016.7 |
| 20260831162305 | 94 | 163 | 4.0 | 8.0 | 0.00 | 0.00 | 0.00 | 54 | 1017.0 |
| 20260831161508 | 93 | 288 | 4.0 | 11.0 | 0.00 | 0.00 | 0.00 | 56 | 1016.8 |
| 20260831161401 | 94 | 169 | 5.0 | 10.0 | 0.00 | 0.00 | 0.00 | 56 | 1017.0 |
| 20260831160505 | 94 | 165 | 5.0 | 9.0 | 0.00 | 0.00 | 0.00 | 55 | 1017.0 |
| 20260831160012 | 94 | 168 | 4.0 | 8.0 | 0.00 | 0.00 | 0.00 | 56 | 1016.7 |
| 20260831155603 | 94 | 174 | 3.0 | 8.0 | 0.00 | 0.00 | 0.00 | 55 | 1017.0 |
| 20260831154702 | 93 | 177 | 2.0 | 7.0 | 0.00 | 0.00 | 0.00 | 58 | 1017.1 |
| 20260831154510 | 92 | 188 | 3.0 | 7.0 | 0.00 | 0.00 | 0.00 | 58 | 1016.6 |
| 20260831153801 | 92 | 154 | 2.0 | 5.0 | 0.00 | 0.00 | 0.00 | 59 | 1017.0 |
| 20260831153003 | 90 | 115 | 1.0 | 8.0 | 0.00 | 0.00 | 0.00 | 60 | 1016.6 |
| 20260831152901 | 91 | 154 | 3.0 | 8.0 | 0.00 | 0.00 | 0.00 | 60 | 1017.0 |
| 20260831152002 | 90 | 154 | 2.0 | 7.0 | 0.00 | 0.00 | 0.00 | 61 | 1017.0 |
| 20260831151504 | 89 | 181 | 1.0 | 6.0 | 0.00 | 0.00 | 0.00 | 63 | 1016.7 |
| 20260831151102 | 89 | 187 | 3.0 | 6.0 | 0.00 | 0.00 | 0.00 | 63 | 1017.0 |
| 20260831150107 | 88 | 300 | 2.0 | 6.0 | 0.00 | 0.00 | 0.00 | 63 | 1016.7 |
| 20260831145306 | 88 | 146 | 3.0 | 7.0 | 0.00 | 0.00 | 0.00 | 64 | 1017.1 |
| 20260831144612 | 87 | 158 | 4.0 | 7.0 | 0.00 | 0.00 | 0.00 | 64 | 1016.7 |
| 20260831143501 | 87 | 166 | 3.0 | 5.0 | 0.00 | 0.00 | 0.00 | 66 | 1016.9 |
| 20260831143003 | 86 | 184 | 2.0 | 5.0 | 0.00 | 0.00 | 0.00 | 66 | 1016.5 |
| 20260831142601 | 86 | 157 | 2.0 | 6.0 | 0.00 | 0.00 | 0.00 | 67 | 1016.9 |
| 20260831141701 | 86 | 177 | 3.0 | 5.0 | 0.00 | 0.00 | 0.00 | 68 | 1016.8 |
| 20260831141505 | 85 | 158 | 2.0 | 5.0 | 0.00 | 0.00 | 0.00 | 68 | 1016.5 |
| 20260831140802 | 85 | 168 | 3.0 | 5.0 | 0.00 | 0.00 | 0.00 | 69 | 1016.7 |
| 20260831140110 | 84 | 172 | 2.0 | 6.0 | 0.00 | 0.00 | 0.00 | 70 | 1016.3 |
| 20260831135901 | 84 | 179 | 3.0 | 6.0 | 0.00 | 0.00 | 0.00 | 70 | 1016.6 |
| 20260831134605 | 83 | 172 | 2.0 | 5.0 | 0.00 | 0.00 | 0.00 | 72 | 1016.4 |
| 20260831133201 | 81 | 167 | 2.0 | 5.0 | 0.00 | 0.00 | 0.00 | 75 | 1016.6 |
| 20260831133103 | 81 | 152 | 2.0 | 5.0 | 0.00 | 0.00 | 0.00 | 75 | 1016.3 |
| 20260831131605 | 78 | 142 | 1.0 | 2.0 | 0.00 | 0.00 | 0.00 | 79 | 1016.1 |
| 20260831131401 | 79 | 159 | 0.0 | 1.0 | 0.00 | 0.00 | 0.00 | 79 | 1016.3 |
| 20260831130501 | 78 | 169 | 1.0 | 3.0 | 0.00 | 0.00 | 0.00 | 79 | 1016.1 |
| 20260831130005 | 78 | 151 | 0.0 | 2.0 | 0.00 | 0.00 | 0.00 | 79 | 1015.8 |
| 20260831124503 | 77 | 106 | 0.0 | 1.0 | 0.00 | 0.00 | 0.00 | 79 | 1015.6 |
| 20260831123801 | 78 | 130 | 1.0 | 3.0 | 0.00 | 0.00 | 0.00 | 80 | 1015.8 |
| 20260831123107 | 77 | 130 | 0.0 | 1.0 | 0.00 | 0.00 | 0.00 | 79 | 1015.4 |
| 20260831122901 | 78 | 129 | 0.0 | 1.0 | 0.00 | 0.00 | 0.00 | 79 | 1015.7 |
| 20260831122001 | 78 | 130 | 0.0 | 2.0 | 0.00 | 0.00 | 0.00 | 79 | 1015.5 |
| 20260831121504 | 77 | 130 | 0.0 | 1.0 | 0.00 | 0.00 | 0.00 | 79 | 1015.3 |
| 20260831121101 | 78 | 130 | 0.0 | 2.0 | 0.00 | 0.00 | 0.00 | 79 | 1015.5 |
| 20260831120202 | 78 | 132 | 0.0 | 2.0 | 0.00 | 0.00 | 0.00 | 79 | 1015.4 |
| 20260831120108 | 77 | 130 | 0.0 | 2.0 | 0.00 | 0.00 | 0.00 | 79 | 1015.1 |
| 20260831115301 | 78 | 118 | 0.0 | 2.0 | 0.00 | 0.00 | 0.00 | 78 | 1015.3 |
| 20260831114511 | 77 | 105 | 0.0 | 2.0 | 0.00 | 0.00 | 0.00 | 78 | 1014.9 |
| 20260831113501 | 78 | 93 | 1.0 | 3.0 | 0.00 | 0.00 | 0.00 | 78 | 1015.2 |
| 20260831113002 | 77 | 124 | 1.0 | 4.0 | 0.00 | 0.00 | 0.00 | 78 | 1014.8 |
| 20260831112601 | 78 | 70 | 0.0 | 3.0 | 0.00 | 0.00 | 0.00 | 78 | 1015.1 |
| 20260831111701 | 78 | 82 | 0.0 | 2.0 | 0.00 | 0.00 | 0.00 | 78 | 1015.0 |
| 20260831111604 | 77 | 45 | 0.0 | 2.0 | 0.00 | 0.00 | 0.00 | 78 | 1014.7 |
| 20260831110802 | 78 | 144 | 0.0 | 2.0 | 0.00 | 0.00 | 0.00 | 78 | 1015.0 |
| 20260831110004 | 77 | 144 | 0.0 | 3.0 | 0.00 | 0.00 | 0.00 | 77 | 1014.7 |
| 20260831105001 | 78 | 63 | 1.0 | 2.0 | 0.00 | 0.00 | 0.00 | 77 | 1014.8 |
| 20260831104510 | 78 | 85 | 0.0 | 2.0 | 0.00 | 0.00 | 0.00 | 77 | 1014.4 |
| 20260831104101 | 78 | 56 | 0.0 | 2.0 | 0.00 | 0.00 | 0.00 | 77 | 1014.7 |
| 20260831103003 | 78 | 39 | 0.0 | 2.0 | 0.00 | 0.00 | 0.00 | 76 | 1014.5 |
| 20260831102305 | 78 | 74 | 0.0 | 1.0 | 0.00 | 0.00 | 0.00 | 76 | 1014.7 |
| 20260831101506 | 78 | 94 | 0.0 | 2.0 | 0.00 | 0.00 | 0.00 | 76 | 1014.5 |
| 20260831101401 | 78 | 105 | 0.0 | 2.0 | 0.00 | 0.00 | 0.00 | 76 | 1014.8 |
| 20260831100501 | 79 | 109 | 0.0 | 2.0 | 0.00 | 0.00 | 0.00 | 76 | 1014.7 |
| 20260831100006 | 78 | 125 | 0.0 | 2.0 | 0.00 | 0.00 | 0.00 | 75 | 1014.4 |
| 20260831094701 | 79 | 142 | 0.0 | 1.0 | 0.00 | 0.00 | 0.00 | 75 | 1014.6 |
| 20260831094508 | 78 | 143 | 0.0 | 1.0 | 0.00 | 0.00 | 0.00 | 75 | 1014.3 |
| 20260831093801 | 79 | 125 | 1.0 | 2.0 | 0.00 | 0.00 | 0.00 | 75 | 1014.5 |
| 20260831093005 | 78 | 121 | 1.0 | 4.0 | 0.00 | 0.00 | 0.00 | 75 | 1014.2 |
| 20260831092902 | 79 | 125 | 1.0 | 5.0 | 0.00 | 0.00 | 0.00 | 75 | 1014.4 |